Satellite-Ground Cal/Val Site Overpasses Predictions

Prediction of Satellite NPP Overpassing Cal/Val Site: Antarctic Dome C

Ground Cal/Val Site Location: Latitude: -75.10, Longitude: 123.35; Satellite-Ground Site NADIR distance within 100 km.

Table of predicted overpasses for the next 14.0 days since TLE Epoch: 11/27/2016
Interval Starting Time Ending Time Minimum Distance Time Minimum Distance (km)
1 11/27/2016 14:36:51 11/27/2016 14:37:06 11/27/2016 14:36:59 85.04
2 11/28/2016 07:38:24 11/28/2016 07:38:50 11/28/2016 07:38:37 39.50
3 11/29/2016 07:19:37 11/29/2016 07:19:58 11/29/2016 07:19:48 70.39
4 12/01/2016 15:01:52 12/01/2016 15:02:16 12/01/2016 15:02:04 59.30
5 12/02/2016 14:43:01 12/02/2016 14:43:27 12/02/2016 14:43:14 49.94
6 12/03/2016 07:44:43 12/03/2016 07:45:02 12/03/2016 07:44:53 74.81
7 12/04/2016 07:25:50 12/04/2016 07:26:18 12/04/2016 07:26:04 32.89
8 12/06/2016 15:08:18 12/06/2016 15:08:24 12/06/2016 15:08:21 97.23
9 12/07/2016 14:49:15 12/07/2016 14:49:44 12/07/2016 14:49:30 14.12


<
